Location: Cz?stochówka
(50.8142°N, 19.0915°E)
Time: 09:53:02
(UTC+00:00)

Meteor 1-23 Rocket - Pass Details

Date: 13 January 2026
Orbit: 840 x 883 km, 81.3° (Epoch: 11 February)

Event Time Altitude Azimuth Distance (km) Brightness Sun altitude
Exits shadow 04:25:56 35° 311° (NW) 1,335 4.8 -20.6°
Maximum altitude 04:27:41 46° 267° (W) 1,118 4.4 -20.3°
Drops below altitude 10° 04:32:57 10° 195° (SSW) 2,455 6.6 -19.5°
Sets 04:35:26 0° 189° (S) 3,388 7.4 -19.1°
